User: anonymous   Login
Location: Newark
(49.7697°N, 2.7094°E)
Time: 18:05:32
(UTC+00:00)
Language:

NO-84 - Orbit

View from above orbital plane
View from above orbital plane
View from above satellite
View from above satellite

Ground track
Ground track

The orbit data is extracted from the following two-line orbital elements,

1 40654U 15025D   20099.17368898  .00008697  00000-0  10814-3 0  8998
2 40654  54.9862 264.3615 0120930   7.3913 352.8837 15.52643101158109
Epoch (UTC): 08 April 2020 04:10:06
Eccentricity: 0.0120930
inclination: 54.9862°
perigee height: 327 km
apogee height: 491 km
right ascension of ascending node: 264.3615°
argument of perigee: 7.3913°
revolutions per day: 15.52643101
mean anomaly at epoch: 352.8837°
orbit number at epoch: 15810

The dashed part of the orbit path shows where the satellite is in the earth's shadow,  

DLR